TimePST,TemperatureF,Dew PointF,Humidity,Sea Level PressureIn,VisibilityMPH,Wind Direction,Wind SpeedMPH,Gust SpeedMPH,PrecipitationIn,Events,Conditions,WindDirDegrees,DateUTC
12:56 AM,42.1,37.0,82,29.79,10.0,South,13.8,-,0.00,,Scattered Clouds,170,2012-12-23 08:56:00
1:56 AM,42.1,37.9,85,29.80,10.0,South,11.5,-,0.00,Rain,Light Rain,170,2012-12-23 09:56:00
2:04 AM,42.8,37.4,81,29.79,10.0,SSE,12.7,-,0.00,Rain,Light Rain,160,2012-12-23 10:04:00
2:42 AM,41.0,37.4,87,29.79,6.0,SSE,12.7,20.7,0.02,Rain,Rain,160,2012-12-23 10:42:00
2:56 AM,41.0,37.9,89,29.79,10.0,SSE,10.4,-,0.02,Rain,Light Rain,150,2012-12-23 10:56:00
3:56 AM,42.1,37.9,85,29.78,10.0,SSE,11.5,-,0.02,Rain,Light Rain,160,2012-12-23 11:56:00
4:51 AM,41.0,39.2,93,29.76,10.0,South,4.6,-,0.03,Rain,Light Rain,170,2012-12-23 12:51:00
4:56 AM,41.0,39.0,93,29.76,10.0,South,5.8,-,0.03,Rain,Rain,170,2012-12-23 12:56:00
5:19 AM,41.0,39.2,93,29.75,10.0,SSE,6.9,-,0.01,,Overcast,150,2012-12-23 13:19:00
5:56 AM,42.1,37.9,85,29.76,10.0,SSE,11.5,-,0.02,Rain,Light Rain,160,2012-12-23 13:56:00
6:56 AM,41.0,39.0,93,29.72,10.0,SE,6.9,-,0.01,Rain,Light Rain,140,2012-12-23 14:56:00
7:56 AM,39.9,39.0,97,29.69,10.0,Calm,Calm,-,0.00,Rain,Light Rain,0,2012-12-23 15:56:00
8:56 AM,41.0,39.0,93,29.67,10.0,Calm,Calm,-,0.01,Rain,Light Rain,0,2012-12-23 16:56:00
9:56 AM,41.0,39.9,96,29.66,5.0,Calm,Calm,-,0.05,Rain,Rain,0,2012-12-23 17:56:00
10:56 AM,41.0,39.9,96,29.64,6.0,North,5.8,-,0.07,Rain,Light Rain,350,2012-12-23 18:56:00
11:30 AM,41.0,41.0,100,29.61,5.0,NNW,4.6,-,0.04,Rain,Rain,340,2012-12-23 19:30:00
11:56 AM,41.0,39.9,96,29.61,5.0,NNW,6.9,-,0.07,Rain,Rain,340,2012-12-23 19:56:00
12:56 PM,41.0,39.9,96,29.61,5.0,NNW,8.1,-,0.07,Rain,Rain,340,2012-12-23 20:56:00
1:56 PM,41.0,39.9,96,29.63,8.0,Calm,Calm,-,0.05,Rain,Light Rain,0,2012-12-23 21:56:00
2:56 PM,39.9,37.9,93,29.66,10.0,SSW,4.6,-,0.03,Rain,Light Rain,210,2012-12-23 22:56:00
3:56 PM,39.9,39.0,97,29.69,10.0,South,5.8,-,0.02,Rain,Light Rain,180,2012-12-23 23:56:00
4:56 PM,39.9,37.9,93,29.73,6.0,South,6.9,-,0.09,Rain,Rain,190,2012-12-24 00:56:00
5:56 PM,39.0,37.9,96,29.75,10.0,SSE,5.8,-,0.02,,Scattered Clouds,150,2012-12-24 01:56:00
6:56 PM,39.0,37.9,96,29.79,10.0,South,6.9,-,N/A,,Mostly Cloudy,170,2012-12-24 02:56:00
7:42 PM,39.2,39.2,100,29.82,6.0,SSW,9.2,-,0.02,Rain,Rain,200,2012-12-24 03:42:00
7:56 PM,39.9,39.0,97,29.81,10.0,SSE,9.2,-,0.04,Rain,Light Rain,160,2012-12-24 03:56:00
8:46 PM,39.2,37.4,93,29.84,10.0,South,9.2,-,0.00,,Mostly Cloudy,170,2012-12-24 04:46:00
8:56 PM,39.0,37.0,93,29.84,10.0,South,8.1,-,0.00,,Overcast,170,2012-12-24 04:56:00
9:56 PM,39.0,37.0,93,29.87,10.0,South,9.2,-,0.00,,Mostly Cloudy,170,2012-12-24 05:56:00
10:56 PM,39.9,37.9,93,29.90,10.0,South,13.8,-,0.00,Rain,Light Rain,170,2012-12-24 06:56:00
11:56 PM,39.9,37.9,93,29.92,10.0,South,10.4,-,0.01,Rain,Light Rain,180,2012-12-24 07:56:00